[[{"header":{"parameterUnit":"m.s-1","parameterCategory":1,"la1":30.2991,"la2":30.254,"lo1":-89.0895,"lo2":-89.0444,"dy":0.0017,"dx":0.0017,"nx":28,"ny":28,"refTime":"2025-08-27T21:00:00:Z","depth":0,"parameterNumber":2,"parameterNumberName":"U-component_of_WINDS"},"data":[0,0,0,0,0,0,0,0,0,0,0,0,0,0,0,0,0,0,0,0,0,0,0,0,0,0,0,0,0,0,0,0,0,0,0,0,0,0,0,0,0,0,0,0,0,0,0,0,0,0,0,0,0,0,0,0,0,0,-1.9602,-1.9603,0,-1.9742,-1.9743,-1.9745,-1.9803,-1.9803,-1.9802,-1.9802,-1.9946,-1.995,-1.9954,0,0,0,0,0,0,0,0,0,0,0,0,0,-1.9386,-1.9389,-1.9601,-1.9603,-1.9605,-1.9741,-1.9743,-1.9745,-1.9803,-1.9803,-1.9802,-1.9802,-1.9944,-1.9949,-1.9954,0,0,0,0,0,0,0,0,0,0,0,0,0,-1.9498,-1.939,-1.9601,-1.965,-1.9656,-1.9741,-1.9743,-1.9746,-1.9803,-1.9803,-1.9802,-1.9802,-1.9943,-1.9949,-1.9955,-2.0001,0,0,-1.9973,-1.9976,0,0,0,0,0,0,0,0,-1.9491,-1.9506,-1.9641,-1.9647,-1.9654,-1.9754,-1.972,-1.9831,-1.9803,-1.9747,-1.9802,-1.9801,-1.9882,-1.9893,-1.9921,-2.0008,-2.0014,-1.9974,-1.9978,-1.998,-1.9982,0,0,0,0,0,0,0,-1.9484,-1.95,-1.9657,-1.9643,-1.9651,-1.9666,-1.9681,-1.9741,-1.9815,-1.9752,-1.9757,-1.9772,-1.9886,-1.9915,-1.9924,-2.0016,-1.9974,-1.9979,-1.9983,-1.9985,-2.015,-2.0151,0,0,0,0,0,0,-1.9468,-1.9493,-1.9652,-1.9661,-1.957,-1.967,-1.9687,-1.9722,-1.9815,-1.9829,-1.9773,-1.9775,-1.9904,-1.9917,-1.993,-1.9991,-1.998,-1.9986,-1.999,-2.0149,-2.015,-2.0151,0,0,0,0,0,0,-1.9463,-1.9481,-1.9647,-1.9578,-1.9601,-1.9674,-1.9713,-1.9725,-1.9754,-1.9831,-1.9844,-1.9788,-1.9904,-1.9921,-1.9983,-1.9997,-1.9989,-1.9994,-2.0149,-2.015,-2.0151,-2.0113,0,0,0,0,0,0,-1.9456,-1.9479,-1.9497,-1.9578,-1.9604,-1.9697,-1.9714,-1.9728,-1.9765,-1.9769,-1.9849,-1.9862,-1.9905,-1.9974,-1.9989,-2.0005,-1.9999,-2.0148,-2.0149,-2.015,-2.0113,-2.0112,-2.0112,0,0,0,0,0,-1.9448,-1.9481,-1.9498,-1.9517,-1.9628,-1.9698,-1.9713,-1.9762,-1.9766,-1.9785,-1.9834,-1.9859,-1.9993,-1.998,-1.9998,-2.0015,-2.0147,-2.0149,-2.015,-2.0114,-2.0113,-2.0112,0,0,0,0,0,0,-1.9399,-1.9492,-1.9512,-1.9572,-1.9627,-1.9708,-1.9733,-1.9759,-1.9815,-1.9816,-1.9875,-1.9893,-1.995,-1.9989,-1.9973,-2.0066,-2.0072,-2.0077,-2.0038,-2.0038,-2.0037,-2.0026,-2.0004,0,0,0,0,0,-1.9395,-1.9444,-1.9523,-1.9568,-1.9594,-1.9659,-1.9691,-1.9725,-1.9784,-1.9807,-1.9861,-1.9918,-1.9973,-2.0008,-2.0062,-2.0119,-2.0138,-2.0141,-2.014,-2.0139,-2.0143,-2.0177,-2.0179,-2.0156,-2.0156,-2.0156,0,0,-1.9387,-1.9444,-1.9471,-1.9559,-1.9606,-1.9655,-1.9678,-1.9729,-1.9767,-1.9815,-1.9877,-1.9919,-1.9986,-2.0046,-2.0075,-2.008,-2.0153,-2.0141,-2.014,-2.0144,-2.0179,-2.0181,-2.0182,-2.0157,-2.0157,-2.0157,0,0,-1.9399,-1.9446,-1.949,-1.9536,-1.9606,-1.9649,-1.9659,-1.9737,-1.9766,-1.9829,-1.9867,-1.9913,-2.0006,-2.0053,-2.0089,-2.0119,-2.0145,-2.0135,-2.0131,-2.0164,-2.0166,-2.0167,-2.0179,-2.0182,-2.0139,-2.0139,-2.0139,0,-1.938,-1.9456,-1.9508,-1.9558,-1.9596,-1.9642,-1.9687,-1.9729,-1.9813,-1.9839,-1.9843,-1.9962,-2.0011,-2.0083,-2.009,-2.0117,-2.0132,-2.0126,-2.0161,-2.0163,-2.0166,-2.0177,-2.0181,-2.0137,-2.0137,-2.0137,-2.0138,0,-1.943,-1.9482,-1.9509,-1.9589,-1.963,-1.9677,-1.9737,-1.9772,-1.9802,-1.9845,-1.9909,-1.9969,-2.0037,-2.0057,-2.0087,-2.0134,-2.0135,-2.0149,-2.0157,-2.0166,-2.0177,-2.0182,-2.0135,-2.0135,-2.0136,-2.0136,0,0,-1.9413,-1.9523,-1.9532,-1.9569,-1.965,-1.9692,-1.9741,-1.9808,-1.9837,-1.9894,-1.9937,-2.0016,-2.003,-2.0071,-2.0106,-2.0135,-2.0156,-2.0147,-2.0149,-2.0146,-2.0212,-2.02,-2.0204,-2.0174,-2.0175,-2.0176,-2.0206,0,-1.9436,-1.9525,-1.9574,-1.9644,-1.9693,-1.9739,-1.9782,-1.9836,-1.9878,-1.9926,-1.9972,-2.0027,-2.0041,-2.0067,-2.0097,-2.0147,-2.017,-2.0145,-2.0215,-2.0216,-2.0196,-2.021,-2.0198,-2.0223,-2.0211,-2.0212,-2.0212,0,-1.9474,-1.953,-1.9604,-1.968,-1.9703,-1.9741,-1.9806,-1.9851,-1.9915,-1.9943,-1.9989,-2.0025,-2.0079,-2.0083,-2.0159,-2.0141,-2.0173,-2.0202,-2.0204,-2.0212,-2.0214,-2.0218,-2.0233,-2.0237,-2.022,-2.0219,-2.0219,0,-1.9454,-1.9548,-1.9605,-1.9636,-1.9726,-1.9752,-1.9791,-1.9854,-1.9891,-1.9949,-1.9974,-2.0036,-2.0071,-2.0119,-2.0171,-2.0169,-2.0243,-2.025,-2.0268,-2.0267,-2.0281,-2.0279,-2.03,-2.0301,-2.0301,-2.0301,-2.0301,0,-1.9474,-1.9517,-1.9598,-1.9632,-1.9683,-1.974,-1.9788,-1.9831,-1.9887,-1.9931,-1.9975,-2.0016,-2.0082,-2.0131,-2.0173,-2.023,-2.0245,-2.027,-2.028,-2.0266,-2.0263,-2.0287,-2.0286,-2.0302,-2.0302,-2.0302,-2.0302,0,-1.946,-1.9516,-1.9581,-1.9661,-1.9683,-1.9716,-1.9786,-1.9822,-1.9866,-1.9921,-1.9938,-2.0007,-2.0067,-2.0124,-2.0205,-2.0233,-2.029,-2.0304,-2.0269,-2.0274,-2.0289,-2.0286,-2.0326,-2.0334,-2.0329,-2.0329,-2.0329,0,-1.9469,-1.9504,-1.9588,-1.9621,-1.9659,-1.9711,-1.9749,-1.9807,-1.9845,-1.992,-1.9947,-2.0011,-2.0065,-2.016,-2.0217,-2.028,-2.0295,-2.0305,-2.0305,-2.0289,-2.0295,-2.0293,-2.0297,-2.0303,-2.0303,-2.0303,-2.0303,0,-1.9479,-1.9505,-1.9558,-1.9621,-1.9665,-1.9718,-1.9772,-1.9796,-1.9864,-1.9905,-1.9967,-2.0009,-2.0092,-2.0155,-2.0224,-2.0265,-2.0295,-2.0303,-2.031,-2.0295,-2.0273,-2.0286,-2.0266,-2.0301,-2.0301,-2.0301,-2.0302,-2.0302,-1.9477,-1.951,-1.9575,-1.9633,-1.9679,-1.9729,-1.9767,-1.9816,-1.9869,-1.994,-1.9971,-2.0034,-2.0098,-2.0194,-2.0235,-2.0286,-2.0293,-2.0303,-2.0306,-2.0307,-2.0305,-2.0266,-2.0299,-2.0299,-2.0299,-2.0299,-2.0299,0,-1.9489,-1.9533,-1.9586,-1.966,-1.9706,-1.973,-1.9792,-1.9829,-1.9884,-1.994,-1.9993,-2.0065,-2.0126,-2.0189,-2.0255,-2.0283,-2.0299,-2.0298,-2.0297,-2.0306,-2.0295,-2.0282,-2.0285,-2.0285,-2.0285,-2.0285,-2.0285,-2.0285,-1.95,-1.9558,-1.9592,-1.9673,-1.9717,-1.9779,-1.9812,-1.9858,-1.9904,-1.9982,-2.0034,-2.0074,-2.0134,-2.0204,-2.0262,-2.0279,-2.0301,-2.0297,-2.0317,-2.0306,-2.0306,-2.0307,-2.0295,-2.0301,-2.0301,-2.0325,-2.0325,-2.0325]},{"header":{"parameterUnit":"m.s-1","parameterCategory":1,"la1":30.2991,"la2":30.254,"lo1":-89.0895,"lo2":-89.0444,"dy":0.0017,"dx":0.0017,"nx":28,"ny":28,"refTime":"2025-08-27T21:00:00:Z","depth":0,"parameterNumber":3,"parameterNumberName":"V-component_of_WINDS"},"data":[0,0,0,0,0,0,0,0,0,0,0,0,0,0,0,0,0,0,0,0,0,0,0,0,0,0,0,0,0,0,0,0,0,0,0,0,0,0,0,0,0,0,0,0,0,0,0,0,0,0,0,0,0,0,0,0,0,0,0.2008,0.2008,0,0.2042,0.2042,0.2042,0.2093,0.2094,0.2095,0.2096,0.2129,0.2129,0.2129,0,0,0,0,0,0,0,0,0,0,0,0,0,0.1987,0.1987,0.2008,0.2008,0.2009,0.2041,0.2042,0.2042,0.2093,0.2094,0.2095,0.2096,0.2129,0.2129,0.2129,0,0,0,0,0,0,0,0,0,0,0,0,0,0.2005,0.1987,0.2008,0.2038,0.2041,0.2041,0.2042,0.2043,0.2093,0.2094,0.2095,0.2097,0.2129,0.2129,0.213,0.2103,0,0,0.213,0.213,0,0,0,0,0,0,0,0,0.2004,0.2006,0.2033,0.2036,0.2039,0.2064,0.2047,0.2063,0.2092,0.2073,0.2096,0.2097,0.2107,0.2109,0.2112,0.2105,0.2106,0.213,0.213,0.213,0.213,0,0,0,0,0,0,0,0.2003,0.2005,0.2021,0.2033,0.2037,0.2049,0.2054,0.205,0.2082,0.2075,0.2078,0.2082,0.2109,0.2112,0.2113,0.2107,0.213,0.213,0.213,0.213,0.2081,0.2079,0,0,0,0,0,0,0.1997,0.2004,0.202,0.2022,0.2025,0.2049,0.2053,0.2055,0.2082,0.2087,0.2081,0.2084,0.2111,0.2113,0.2115,0.2086,0.213,0.213,0.213,0.2082,0.208,0.2079,0,0,0,0,0,0,0.1997,0.1998,0.2019,0.2014,0.2017,0.2048,0.2049,0.2055,0.2058,0.2086,0.2092,0.2078,0.2112,0.2114,0.2106,0.2088,0.213,0.213,0.2084,0.2082,0.208,0.2028,0,0,0,0,0,0,0.1996,0.1998,0.1988,0.2013,0.2018,0.2009,0.2048,0.2055,0.2058,0.2063,0.2086,0.2091,0.2113,0.2106,0.2106,0.2089,0.213,0.2085,0.2083,0.208,0.2032,0.2025,0.2019,0,0,0,0,0,0.1995,0.1972,0.1987,0.1989,0.2006,0.2008,0.2011,0.2037,0.2057,0.2047,0.2066,0.209,0.209,0.2104,0.2105,0.2088,0.2087,0.2083,0.208,0.2035,0.2026,0.2019,0,0,0,0,0,0,0.1943,0.1976,0.1993,0.1978,0.199,0.2017,0.2005,0.2027,0.2034,0.2038,0.2071,0.2076,0.2063,0.2075,0.209,0.2064,0.2092,0.2089,0.2057,0.2049,0.2043,0.204,0.213,0,0,0,0,0,0.193,0.1929,0.1958,0.1941,0.1946,0.1975,0.1977,0.1996,0.201,0.2015,0.2033,0.2045,0.2048,0.2049,0.2054,0.2034,0.204,0.2023,0.2016,0.2011,0.2008,0.1999,0.1991,0.2069,0.2069,0.2069,0,0,0.1902,0.192,0.1918,0.1931,0.1943,0.1941,0.1979,0.1975,0.1974,0.2015,0.2008,0.2021,0.2038,0.2023,0.2018,0.2033,0.1988,0.2007,0.2002,0.2002,0.1995,0.1987,0.1981,0.2067,0.2067,0.2067,0,0,0.1852,0.1865,0.1853,0.1864,0.1882,0.1901,0.1898,0.1922,0.1933,0.1927,0.1957,0.1957,0.1961,0.1971,0.1977,0.1931,0.1954,0.1932,0.1898,0.1889,0.1882,0.1877,0.1861,0.1855,0.1929,0.1928,0.1928,0,0.1815,0.1814,0.1844,0.1839,0.1844,0.1882,0.187,0.1879,0.1897,0.19,0.1916,0.1923,0.1936,0.1925,0.1914,0.1917,0.1915,0.1929,0.1881,0.1876,0.1872,0.1857,0.185,0.1926,0.1926,0.1926,0.1926,0,0.1769,0.1768,0.1756,0.1773,0.1777,0.1768,0.1797,0.1797,0.1817,0.1834,0.1828,0.1846,0.1854,0.1853,0.1872,0.1845,0.1854,0.1875,0.1904,0.1861,0.1847,0.1842,0.1921,0.1923,0.1923,0.1924,0,0,0.1686,0.172,0.1715,0.1723,0.1746,0.1746,0.1739,0.1748,0.1748,0.1759,0.1755,0.1758,0.1778,0.1784,0.1805,0.1797,0.176,0.182,0.182,0.1808,0.1732,0.1716,0.1709,0.1776,0.1775,0.1774,0.1731,0,0.1639,0.163,0.1657,0.1641,0.1641,0.1677,0.1671,0.1684,0.1701,0.1703,0.1721,0.1723,0.1749,0.1753,0.1747,0.1766,0.1745,0.1769,0.1772,0.1771,0.1766,0.1702,0.1684,0.1643,0.1726,0.1725,0.1724,0,0.1584,0.1593,0.1577,0.1601,0.1602,0.1596,0.1607,0.1609,0.1625,0.1637,0.1645,0.1669,0.1665,0.1692,0.1687,0.1703,0.1705,0.1715,0.1714,0.1715,0.1745,0.1701,0.163,0.1623,0.1716,0.1717,0.1717,0,0.1525,0.1533,0.1525,0.1531,0.1559,0.1554,0.1565,0.1583,0.1587,0.1596,0.1599,0.1608,0.1612,0.1619,0.1645,0.1662,0.1636,0.1666,0.1647,0.1646,0.1639,0.1639,0.1567,0.1641,0.1641,0.1641,0.1641,0,0.147,0.1459,0.1499,0.1493,0.1482,0.1513,0.1501,0.1516,0.1532,0.153,0.1562,0.156,0.1595,0.1596,0.1617,0.1609,0.1611,0.1621,0.1627,0.1618,0.1617,0.162,0.1624,0.164,0.164,0.164,0.164,0,0.1402,0.1428,0.1421,0.1449,0.1455,0.1446,0.1469,0.1466,0.1485,0.1482,0.1484,0.1513,0.1517,0.1544,0.1554,0.1567,0.1552,0.1564,0.1547,0.1551,0.153,0.1531,0.1457,0.1449,0.1528,0.1527,0.1526,0,0.1365,0.1358,0.1384,0.1386,0.1396,0.1398,0.1402,0.1433,0.1436,0.1455,0.1449,0.1455,0.1462,0.1467,0.1489,0.1497,0.1509,0.1482,0.151,0.1502,0.1508,0.1508,0.1508,0.1476,0.1475,0.1474,0.1474,0,0.1297,0.1311,0.1316,0.1326,0.133,0.1339,0.135,0.135,0.1384,0.1386,0.1391,0.1396,0.1407,0.1413,0.1425,0.1437,0.1461,0.1465,0.1461,0.1452,0.1442,0.1447,0.1531,0.1466,0.1467,0.1468,0.1468,0.1468,0.1244,0.1239,0.1257,0.1262,0.1274,0.1284,0.1282,0.1301,0.1305,0.1316,0.1334,0.1336,0.1354,0.1372,0.1382,0.1385,0.1399,0.1393,0.1391,0.1389,0.1385,0.1442,0.1387,0.1387,0.1387,0.1388,0.1388,0,0.1177,0.1191,0.1195,0.121,0.1214,0.1237,0.1251,0.1252,0.1254,0.1268,0.1274,0.128,0.1286,0.131,0.1319,0.1316,0.1327,0.1317,0.1318,0.132,0.1372,0.1374,0.1308,0.1308,0.1308,0.1308,0.1308,0.1308,0.1143,0.1136,0.1152,0.1151,0.1165,0.1168,0.1174,0.1183,0.1195,0.1199,0.1205,0.122,0.1238,0.1249,0.1256,0.1263,0.1265,0.1251,0.1261,0.1309,0.1316,0.1324,0.1326,0.1251,0.1251,0.1209,0.1209,0.1209]}]]